Weather History for Missoula, MT

Change the Weather History Date:

Wednesday, March 5, 2014

  Actual Average Record
Temperature  
Mean Temperature 41 °F 35 °F  
Max Temperature 48 °F 46 °F 61 °F (1905)
Min Temperature 34 °F 25 °F -13 °F (1955)
Degree Days  
Heating Degree Days 24 30  
Month to date heating degree days 206 152  
Since 1 July heating degree days 5716 5521  
Cooling Degree Days 0 0  
Month to date cooling degree days 0 0  
Year to date cooling degree days 0 0  
Moisture  
Dew Point 34 °F    
Average Humidity 79    
Maximum Humidity 92    
Minimum Humidity 65    
Precipitation  
Precipitation 0.05 in 0.03 in 0.31 in (1919)
Month to date precipitation 0.34 0.14  
Year to date precipitation 3.69 1.69  
Snow  
Snow 0.00 in - - ()
Month to date snowfall 2.9  
Year to date snowfall 49.6  
Since 1 July snowfall 63.5  
Snow Depth 7.00 in    
Sea Level Pressure  
Sea Level Pressure 29.89 in    
Wind  
Wind Speed 9 mph (SE)    
Max Wind Speed 20 mph    
Max Gust Speed 22 mph    
Visibility 10 miles    
Events Rain    
T = Trace of Precipitation, MM = Missing Value Source: NWS Daily Summary

Daily Weather History Graph

Daily Weather History Graph

Search for Another Location

Airport:

Trip Planner

Search our weather history database for the weather conditions in past years. The results will help you decide how hot, cold, wet, or windy it might be!

Date:

Astronomy

Mar. 05, 2014 Rise Set
Actual Time 7:08 AM MST 6:27 PM MST
Civil Twilight 6:38 AM MST 6:58 PM MST
Nautical Twilight 6:02 AM MST 7:33 PM MST
Astronomical Twilight 5:27 AM MST 8:09 PM MST
Moon 9:17 AM MST (3/5) No Moon Set
Length of Visible Light 12h 20m
Length of Day
11h 19m
Waxing Crescent, 24% of the Moon is Illuminated
Mar 5
Waxing Crescent
Mar 8
First Quarter
Mar 16
Full
Mar 23
Last Quarter
Mar 30
New

Hourly Weather History & Observations

Time (MST) Temp. Windchill Dew Point Humidity Pressure Visibility Wind Dir Wind Speed Gust Speed Precip Events Conditions
12:53 AM 37.0 °F 29.8 °F 34.0 °F 89% 30.03 in 10.0 mi ESE 10.4 mph - N/A   Overcast
1:53 AM 37.0 °F 29.3 °F 34.0 °F 89% 30.02 in 10.0 mi ESE 11.5 mph - 0.00 in Rain Light Rain
2:53 AM 37.0 °F 30.4 °F 34.0 °F 89% 30.03 in 10.0 mi ESE 9.2 mph - 0.00 in   Overcast
3:53 AM 37.0 °F 28.9 °F 33.1 °F 86% 30.01 in 10.0 mi ESE 12.7 mph - N/A   Overcast
4:53 AM 37.0 °F 29.8 °F 34.0 °F 89% 30.00 in 10.0 mi ESE 10.4 mph - 0.00 in   Overcast
5:05 AM 37.0 °F 31.0 °F 34.0 °F 89% 29.94 in 10.0 mi East 8.1 mph - 0.00 in Rain Light Rain
5:53 AM 35.1 °F 27.4 °F 33.1 °F 92% 29.99 in 10.0 mi SSE 10.4 mph - 0.00 in Rain Light Rain
6:53 AM 36.0 °F 28.5 °F 33.1 °F 89% 29.96 in 10.0 mi SE 10.4 mph - 0.00 in   Mostly Cloudy
7:53 AM 35.1 °F 28.6 °F 33.1 °F 92% 29.94 in 10.0 mi SE 8.1 mph - N/A   Overcast
8:53 AM 35.1 °F 30.1 °F 33.1 °F 92% 29.91 in 10.0 mi SE 5.8 mph - N/A   Overcast
9:53 AM 37.0 °F 29.3 °F 33.1 °F 86% 29.89 in 10.0 mi ESE 11.5 mph - N/A   Mostly Cloudy
10:53 AM 39.0 °F 34.8 °F 34.0 °F 82% 29.87 in 10.0 mi East 5.8 mph - N/A   Mostly Cloudy
11:53 AM 37.9 °F - 33.1 °F 83% 29.88 in 10.0 mi North - - N/A   Overcast
12:53 PM 46.9 °F - 36.0 °F 66% 29.87 in 10.0 mi Calm Calm - 0.00 in Rain Light Rain
1:53 PM 44.1 °F - 35.1 °F 71% 29.86 in 10.0 mi Calm Calm - 0.00 in   Overcast
2:53 PM 45.0 °F 39.7 °F 34.0 °F 65% 29.84 in 10.0 mi SSE 10.4 mph - N/A   Overcast
3:53 PM 45.0 °F 41.2 °F 35.1 °F 68% 29.84 in 10.0 mi South 6.9 mph - N/A   Overcast
4:53 PM 43.0 °F 40.3 °F 35.1 °F 74% 29.86 in 10.0 mi East 4.6 mph - 0.00 in   Overcast
5:53 PM 43.0 °F 38.8 °F 35.1 °F 74% 29.84 in 10.0 mi SE 6.9 mph - N/A   Overcast
6:53 PM 42.1 °F 34.5 °F 35.1 °F 76% 29.84 in 10.0 mi SSE 15.0 mph - N/A   Overcast
7:53 PM 41.0 °F 34.3 °F 35.1 °F 79% 29.84 in 10.0 mi SSE 11.5 mph - N/A   Overcast
8:53 PM 41.0 °F 34.3 °F 35.1 °F 79% 29.81 in 10.0 mi SE 11.5 mph - N/A   Overcast
9:53 PM 39.9 °F 35.1 °F 36.0 °F 86% 29.78 in 10.0 mi ESE 6.9 mph - 0.01 in Rain Light Rain
10:53 PM 37.9 °F 31.5 °F 36.0 °F 93% 29.75 in 10.0 mi SE 9.2 mph - 0.01 in   Overcast
11:53 PM 39.0 °F 32.3 °F 37.0 °F 93% 29.73 in 10.0 mi East 10.4 mph - 0.03 in Rain Light Rain